When you browse on this site, cookies collect data to enhance your experience and personalize the content and advertising you see.
Visit our Privacy Policy to learn more. By continuing to use the site, you agree to this use of cookies and data.
  • En España
  • Lista de países
  • Para 7 días
  • Temperatura del agua
  • El tiempo en el mapa
  • Informadores
  • user-avatar
    Iniciar sesión

    Tiempo cada hora Elbasan

    Hoy, 23 Octubre, Miércoles

    Tiempo Temperatura Precipitaciones Viento Presión Humedad
    00:00 +19°C° 0 mm 2 mps 739 mmHg 46%
    01:00 +18°C° 0 mm 2 mps 739 mmHg 46%
    02:00 +18°C° 0 mm 2 mps 739 mmHg 47%
    03:00 +18°C° 0 mm 2 mps 739 mmHg 47%
    04:00 +18°C° 0 mm 2 mps 739 mmHg 48%
    05:00 +18°C° 0 mm 2 mps 739 mmHg 48%
    06:00 +18°C° 0 mm 2 mps 739 mmHg 49%
    07:00 +18°C° 0 mm 2 mps 739 mmHg 49%
    08:00 +21°C° 0 mm 2 mps 739 mmHg 43%
    09:00 +25°C° 0 mm 1 mps 739 mmHg 36%
    10:00 +27°C° 0 mm 1 mps 739 mmHg 30%
    11:00 +28°C° 0 mm 1 mps 739 mmHg 28%
    12:00 +29°C° 0 mm 2 mps 739 mmHg 27%
    13:00 +29°C° 0 mm 2 mps 738 mmHg 25%
    14:00 +28°C° 0 mm 2 mps 738 mmHg 30%
    15:00 +27°C° 0 mm 2 mps 738 mmHg 35%
    16:00 +25°C° 0 mm 1 mps 737 mmHg 40%
    17:00 +24°C° 0 mm 1 mps 738 mmHg 42%
    18:00 +22°C° 0 mm 1 mps 738 mmHg 44%
    19:00 +21°C° 0 mm 1 mps 738 mmHg 47%
    20:00 +20°C° 0 mm 1 mps 738 mmHg 46%
    21:00 +20°C° 0 mm 1 mps 738 mmHg 45%
    22:00 +20°C° 0 mm 1 mps 738 mmHg 45%
    23:00 +19°C° 0 mm 1 mps 738 mmHg 44%

    Mañana, 24 Octubre, Jueves

    Tiempo Temperatura Precipitaciones Viento Presión Humedad
    00:00 +19°C° 0 mm 1 mps 738 mmHg 44%
    01:00 +18°C° 0 mm 1 mps 738 mmHg 44%
    02:00 +17°C° 0 mm 2 mps 738 mmHg 44%
    03:00 +17°C° 0 mm 2 mps 737 mmHg 44%
    04:00 +17°C° 0 mm 2 mps 737 mmHg 44%
    05:00 +17°C° 0 mm 2 mps 737 mmHg 43%
    06:00 +17°C° 0 mm 2 mps 737 mmHg 43%
    07:00 +17°C° 0 mm 2 mps 737 mmHg 43%
    08:00 +21°C° 0 mm 1 mps 737 mmHg 37%
    09:00 +24°C° 0 mm 1 mps 737 mmHg 31%
    10:00 +27°C° 0 mm 1 mps 737 mmHg 25%
    11:00 +27°C° 0 mm 1 mps 737 mmHg 24%
    12:00 +28°C° 0 mm 1 mps 737 mmHg 23%
    13:00 +29°C° 0 mm 2 mps 736 mmHg 21%
    14:00 +27°C° 0 mm 2 mps 736 mmHg 27%
    15:00 +26°C° 0 mm 1 mps 736 mmHg 33%
    16:00 +24°C° 0 mm 1 mps 735 mmHg 39%
    17:00 +23°C° 0 mm 1 mps 735 mmHg 45%
    18:00 +21°C° 0 mm 1 mps 736 mmHg 50%
    19:00 +17°C° 0 mm 0 mps 736 mmHg 56%
    20:00 +17°C° 0 mm 0 mps 736 mmHg 54%
    21:00 +19°C° 0 mm 1 mps 736 mmHg 52%
    22:00 +18°C° 0 mm 1 mps 736 mmHg 51%
    23:00 +18°C° 0 mm 1 mps 736 mmHg 49%

    Pasado mañana, 25 Octubre, Viernes

    Tiempo Temperatura Precipitaciones Viento Presión Humedad
    00:00 +18°C° 0 mm 1 mps 736 mmHg 46%
    01:00 +17°C° 0 mm 2 mps 736 mmHg 44%
    02:00 +16°C° 0 mm 2 mps 736 mmHg 44%
    03:00 +16°C° 0 mm 2 mps 736 mmHg 43%
    04:00 +16°C° 0 mm 2 mps 736 mmHg 42%
    05:00 +16°C° 0 mm 2 mps 736 mmHg 42%
    06:00 +16°C° 0 mm 1 mps 736 mmHg 43%
    07:00 +18°C° 0 mm 1 mps 736 mmHg 43%
    08:00 +20°C° 0 mm 1 mps 736 mmHg 38%
    09:00 +23°C° 0 mm 1 mps 737 mmHg 33%
    10:00 +25°C° 0 mm 1 mps 737 mmHg 27%
    11:00 +26°C° 0 mm 1 mps 737 mmHg 26%
    12:00 +27°C° 0 mm 1 mps 737 mmHg 25%
    13:00 +28°C° 0 mm 2 mps 737 mmHg 24%
    14:00 +26°C° 0 mm 2 mps 737 mmHg 30%
    15:00 +25°C° 0 mm 2 mps 737 mmHg 36%
    16:00 +23°C° 0 mm 1 mps 737 mmHg 42%
    17:00 +22°C° 0 mm 1 mps 737 mmHg 45%
    18:00 +21°C° 0 mm 1 mps 737 mmHg 48%
    19:00 +19°C° 0 mm 1 mps 737 mmHg 50%
    20:00 +19°C° 0 mm 1 mps 738 mmHg 49%
    21:00 +19°C° 0 mm 1 mps 738 mmHg 47%
    22:00 +19°C° 0 mm 1 mps 738 mmHg 45%
    23:00 +19°C° 0 mm 1 mps 738 mmHg 44%

    26 Octubre, Sábado

    Tiempo Temperatura Precipitaciones Viento Presión Humedad
    00:00 +18°C° 0 mm 1 mps 738 mmHg 44%
    01:00 +18°C° 0 mm 1 mps 738 mmHg 43%
    02:00 +18°C° 0 mm 1 mps 738 mmHg 43%
    03:00 +16°C° 0 mm 1 mps 738 mmHg 42%
    04:00 +16°C° 0 mm 2 mps 738 mmHg 42%
    05:00 +16°C° 0 mm 2 mps 738 mmHg 41%
    06:00 +17°C° 0 mm 2 mps 738 mmHg 41%
    07:00 +17°C° 0 mm 2 mps 738 mmHg 40%
    08:00 +21°C° 0 mm 1 mps 739 mmHg 35%
    09:00 +23°C° 0 mm 1 mps 739 mmHg 30%
    10:00 +26°C° 0 mm 1 mps 739 mmHg 24%
    11:00 +27°C° 0 mm 1 mps 739 mmHg 23%
    12:00 +28°C° 0 mm 1 mps 739 mmHg 22%
    13:00 +28°C° 0 mm 2 mps 739 mmHg 20%
    14:00 +27°C° 0 mm 2 mps 738 mmHg 26%
    15:00 +25°C° 0 mm 2 mps 738 mmHg 33%
    16:00 +24°C° 0 mm 1 mps 738 mmHg 39%
    17:00 +22°C° 0 mm 1 mps 738 mmHg 42%
    18:00 +21°C° 0 mm 1 mps 738 mmHg 46%
    19:00 +19°C° 0 mm 1 mps 738 mmHg 49%
    20:00 +19°C° 0 mm 1 mps 738 mmHg 47%
    21:00 +19°C° 0 mm 1 mps 738 mmHg 45%
    22:00 +18°C° 0 mm 1 mps 739 mmHg 43%
    23:00 +18°C° 0 mm 1 mps 738 mmHg 41%

    27 Octubre, Domingo

    Tiempo Temperatura Precipitaciones Viento Presión Humedad
    00:00 +18°C° 0 mm 1 mps 738 mmHg 40%
    01:00 +16°C° 0 mm 1 mps 738 mmHg 39%
    02:00 +16°C° 0 mm 1 mps 738 mmHg 39%
    03:00 +16°C° 0 mm 1 mps 738 mmHg 39%
    04:00 +16°C° 0 mm 1 mps 738 mmHg 38%
    05:00 +16°C° 0 mm 1 mps 738 mmHg 38%
    06:00 +16°C° 0 mm 1 mps 738 mmHg 38%
    07:00 +18°C° 0 mm 1 mps 738 mmHg 38%
    08:00 +20°C° 0 mm 1 mps 738 mmHg 34%
    09:00 +23°C° 0 mm 1 mps 738 mmHg 29%
    10:00 +26°C° 0 mm 1 mps 738 mmHg 25%
    11:00 +26°C° 0 mm 1 mps 738 mmHg 25%
    12:00 +27°C° 0 mm 2 mps 738 mmHg 25%
    13:00 +27°C° 0 mm 2 mps 737 mmHg 25%
    14:00 +26°C° 0 mm 2 mps 737 mmHg 30%
    15:00 +25°C° 0 mm 2 mps 737 mmHg 36%
    16:00 +23°C° 0 mm 2 mps 737 mmHg 41%
    17:00 +21°C° 0 mm 1 mps 737 mmHg 47%
    18:00 +20°C° 0 mm 1 mps 737 mmHg 52%
    19:00 +16°C° 0 mm 0 mps 737 mmHg 57%
    20:00 +16°C° 0 mm 0 mps 737 mmHg 57%
    21:00 +15°C° 0 mm 0 mps 737 mmHg 56%
    22:00 +16°C° 0 mm 1 mps 737 mmHg 55%
    23:00 +16°C° 0 mm 1 mps 737 mmHg 54%

    28 Octubre, Lunes

    Tiempo Temperatura Precipitaciones Viento Presión Humedad
    00:00 +16°C° 0 mm 1 mps 737 mmHg 54%
    01:00 +15°C° 0 mm 1 mps 737 mmHg 53%
    02:00 +15°C° 0 mm 1 mps 737 mmHg 53%
    03:00 +15°C° 0 mm 1 mps 736 mmHg 52%
    04:00 +15°C° 0 mm 1 mps 736 mmHg 52%
    05:00 +15°C° 0 mm 1 mps 736 mmHg 51%
    06:00 +16°C° 0 mm 1 mps 736 mmHg 50%
    07:00 +16°C° 0 mm 1 mps 736 mmHg 49%
    08:00 +19°C° 0 mm 1 mps 737 mmHg 43%
    09:00 +22°C° 0 mm 1 mps 737 mmHg 37%
    10:00 +24°C° 0 mm 1 mps 737 mmHg 32%
    11:00 +25°C° 0 mm 1 mps 737 mmHg 31%
    12:00 +26°C° 0 mm 2 mps 736 mmHg 31%
    13:00 +26°C° 0 mm 2 mps 736 mmHg 31%
    14:00 +25°C° 0 mm 2 mps 736 mmHg 37%
    15:00 +23°C° 0 mm 2 mps 735 mmHg 43%
    16:00 +21°C° 0 mm 2 mps 735 mmHg 49%
    17:00 +21°C° 0 mm 1 mps 735 mmHg 56%
    18:00 +19°C° 0 mm 1 mps 735 mmHg 62%
    19:00 +15°C° 0 mm 0 mps 735 mmHg 69%
    20:00 +16°C° 0 mm 1 mps 736 mmHg 67%
    21:00 +16°C° 0 mm 1 mps 736 mmHg 65%
    22:00 +15°C° 0 mm 1 mps 736 mmHg 63%
    23:00 +15°C° 0 mm 1 mps 736 mmHg 61%

    29 Octubre, Martes

    Tiempo Temperatura Precipitaciones Viento Presión Humedad
    00:00 +14°C° 0 mm 0 mps 736 mmHg 60%
    01:00 +14°C° 0 mm 0 mps 736 mmHg 59%
    02:00 +14°C° 0 mm 0 mps 736 mmHg 58%
    03:00 +13°C° 0 mm 0 mps 735 mmHg 58%
    04:00 +13°C° 0 mm 0 mps 735 mmHg 58%
    05:00 +15°C° 0 mm 1 mps 735 mmHg 56%
    06:00 +15°C° 0 mm 1 mps 736 mmHg 55%
    07:00 +16°C° 0 mm 1 mps 736 mmHg 53%
    08:00 +18°C° 0 mm 1 mps 736 mmHg 49%
    09:00 +20°C° 0 mm 1 mps 736 mmHg 44%
    10:00 +22°C° 0 mm 1 mps 736 mmHg 39%
    11:00 +23°C° 0 mm 1 mps 736 mmHg 38%
    12:00 +24°C° 0 mm 2 mps 736 mmHg 37%
    13:00 +24°C° 0 mm 2 mps 736 mmHg 37%
    14:00 +23°C° 0 mm 2 mps 736 mmHg 44%
    15:00 +21°C° 0 mm 2 mps 735 mmHg 52%
    16:00 +20°C° 0 mm 2 mps 735 mmHg 59%
    17:00 +20°C° 0 mm 1 mps 735 mmHg 67%
    18:00 +18°C° 0 mm 1 mps 736 mmHg 75%
    19:00 +15°C° 0 mm 0 mps 736 mmHg 83%
    20:00 +15°C° 0 mm 0 mps 736 mmHg 83%
    21:00 +15°C° 0 mm 0 mps 736 mmHg 83%
    22:00 +14°C° 0 mm 0 mps 737 mmHg 83%
    23:00 +15°C° 0 mm 1 mps 737 mmHg 82%
    Mostrar más